| time (UTC) | temp F | wind direction | speed MPH | gust MPH | rain 1hr in | rain 24hr in | rain mn in | humidity % | barometer mb |
| 20260510200010 | 58 | 293 | 0.0 | 0.0 | 0.00 | 0.00 | 0.00 | 40 | 1004.1 |
| 20260510195509 | 58 | 225 | 0.0 | 0.0 | 0.00 | 0.00 | 0.00 | 40 | 1004.4 |
| 20260510195009 | 58 | 270 | 0.0 | 0.0 | 0.00 | 0.00 | 0.00 | 40 | 1004.4 |
| 20260510194010 | 59 | 315 | 0.0 | 0.0 | 0.00 | 0.00 | 0.00 | 41 | 1004.4 |
| 20260510193509 | 59 | 270 | 0.0 | 0.0 | 0.00 | 0.00 | 0.00 | 40 | 1004.4 |
| 20260510193010 | 59 | 293 | 0.0 | 0.0 | 0.00 | 0.00 | 0.00 | 41 | 1004.4 |
| 20260510192510 | 59 | 293 | 0.0 | 0.0 | 0.00 | 0.00 | 0.00 | 41 | 1004.4 |
| 20260510192010 | 58 | 293 | 0.0 | 0.0 | 0.00 | 0.00 | 0.00 | 41 | 1004.4 |
| 20260510191509 | 58 | 293 | 0.0 | 0.0 | 0.00 | 0.00 | 0.00 | 40 | 1004.4 |
| 20260510191011 | 58 | 270 | 0.0 | 0.0 | 0.00 | 0.00 | 0.00 | 40 | 1004.4 |
| 20260510190510 | 57 | 270 | 0.0 | 0.0 | 0.00 | 0.00 | 0.00 | 40 | 1004.4 |
| 20260510190010 | 57 | 293 | 0.0 | 0.0 | 0.00 | 0.00 | 0.00 | 41 | 1004.4 |
| 20260510185510 | 57 | 225 | 0.0 | 0.0 | 0.00 | 0.00 | 0.00 | 40 | 1004.4 |
| 20260510185009 | 57 | 248 | 0.0 | 0.0 | 0.00 | 0.00 | 0.00 | 40 | 1004.4 |
| 20260510184511 | 57 | 270 | 0.0 | 0.0 | 0.00 | 0.00 | 0.00 | 40 | 1004.4 |
| 20260510184017 | 58 | 248 | 0.0 | 0.0 | 0.00 | 0.00 | 0.00 | 40 | 1004.0 |
| 20260510183510 | 58 | 293 | 0.0 | 0.0 | 0.00 | 0.00 | 0.00 | 40 | 1004.3 |
| 20260510183010 | 58 | 270 | 0.0 | 0.0 | 0.00 | 0.00 | 0.00 | 40 | 1004.0 |
| 20260510182510 | 58 | 225 | 0.0 | 0.0 | 0.00 | 0.00 | 0.00 | 40 | 1004.0 |
| 20260510182009 | 58 | 203 | 0.0 | 0.0 | 0.00 | 0.00 | 0.00 | 40 | 1004.0 |
| 20260510181017 | 57 | 270 | 0.0 | 0.0 | 0.00 | 0.00 | 0.00 | 40 | 1004.0 |
| 20260510180509 | 57 | 225 | 0.0 | 0.0 | 0.00 | 0.00 | 0.00 | 40 | 1004.0 |
| 20260510180010 | 58 | 338 | 0.0 | 0.0 | 0.00 | 0.00 | 0.00 | 40 | 1004.0 |
| 20260510175510 | 58 | 293 | 0.0 | 0.0 | 0.00 | 0.00 | 0.00 | 40 | 1003.8 |
| 20260510175009 | 58 | 225 | 0.0 | 0.0 | 0.00 | 0.00 | 0.00 | 41 | 1003.7 |
| 20260510174010 | 59 | 248 | 0.0 | 0.0 | 0.00 | 0.00 | 0.00 | 40 | 1003.7 |
| 20260510173010 | 59 | 248 | 0.0 | 0.0 | 0.00 | 0.00 | 0.00 | 41 | 1003.7 |
| 20260510172510 | 59 | 248 | 0.0 | 0.0 | 0.00 | 0.00 | 0.00 | 40 | 1003.7 |
| 20260510172010 | 59 | 248 | 0.0 | 0.0 | 0.00 | 0.00 | 0.00 | 40 | 1003.8 |
| 20260510171509 | 60 | 225 | 0.0 | 0.0 | 0.00 | 0.00 | 0.00 | 40 | 1004.0 |
| 20260510171011 | 60 | 293 | 0.0 | 0.0 | 0.00 | 0.00 | 0.00 | 41 | 1004.1 |
| 20260510170510 | 60 | 315 | 0.0 | 0.0 | 0.00 | 0.00 | 0.00 | 42 | 1004.0 |
| 20260510170010 | 60 | 315 | 0.0 | 0.0 | 0.00 | 0.00 | 0.00 | 42 | 1004.0 |
| 20260510165511 | 60 | 338 | 0.0 | 0.0 | 0.00 | 0.00 | 0.00 | 41 | 1004.0 |
| 20260510165010 | 60 | 203 | 0.0 | 0.0 | 0.00 | 0.00 | 0.00 | 41 | 1004.0 |
| 20260510164509 | 60 | 180 | 0.0 | 0.0 | 0.00 | 0.00 | 0.00 | 42 | 1004.1 |
| 20260510164016 | 59 | 338 | 0.0 | 0.0 | 0.00 | 0.00 | 0.00 | 42 | 1004.0 |
| 20260510163509 | 59 | 338 | 0.0 | 0.0 | 0.00 | 0.00 | 0.00 | 43 | 1004.1 |
| 20260510162510 | 58 | 293 | 0.0 | 0.0 | 0.00 | 0.00 | 0.00 | 44 | 1004.2 |
| 20260510162009 | 58 | 315 | 0.0 | 0.0 | 0.00 | 0.00 | 0.00 | 44 | 1004.0 |
| 20260510161010 | 57 | 293 | 0.0 | 0.0 | 0.00 | 0.00 | 0.00 | 44 | 1004.0 |
| 20260510160509 | 56 | 248 | 0.0 | 0.0 | 0.00 | 0.00 | 0.00 | 45 | 1004.0 |
| 20260510155518 | 56 | 270 | 0.0 | 0.0 | 0.00 | 0.00 | 0.00 | 45 | 1004.0 |
| 20260510155010 | 55 | 293 | 0.0 | 0.0 | 0.00 | 0.00 | 0.00 | 44 | 1004.0 |
| 20260510154510 | 54 | 315 | 0.0 | 0.0 | 0.00 | 0.00 | 0.00 | 48 | 1004.0 |
| 20260510154017 | 54 | 270 | 0.0 | 0.0 | 0.00 | 0.00 | 0.00 | 48 | 1004.0 |
| 20260510153509 | 53 | 293 | 0.0 | 0.0 | 0.00 | 0.00 | 0.00 | 49 | 1004.0 |
| 20260510153009 | 53 | 315 | 0.0 | 0.0 | 0.00 | 0.00 | 0.00 | 48 | 1004.0 |
| 20260510152511 | 53 | 338 | 0.0 | 0.0 | 0.00 | 0.00 | 0.00 | 51 | 1004.0 |
| 20260510152009 | 52 | 338 | 0.0 | 0.0 | 0.00 | 0.00 | 0.00 | 51 | 1004.0 |
| 20260510151510 | 52 | 248 | 0.0 | 0.0 | 0.00 | 0.00 | 0.00 | 51 | 1004.0 |
| 20260510151017 | 51 | 270 | 0.0 | 0.0 | 0.00 | 0.00 | 0.00 | 51 | 1004.0 |
| 20260510150510 | 51 | 315 | 0.0 | 0.0 | 0.00 | 0.00 | 0.00 | 51 | 1004.0 |
| 20260510145509 | 51 | 270 | 0.0 | 0.0 | 0.00 | 0.00 | 0.00 | 52 | 1003.8 |
| 20260510145010 | 50 | 293 | 0.0 | 0.0 | 0.00 | 0.00 | 0.00 | 52 | 1003.9 |
| 20260510144509 | 50 | 293 | 0.0 | 0.0 | 0.00 | 0.00 | 0.00 | 53 | 1003.7 |
| 20260510144011 | 50 | 293 | 0.0 | 0.0 | 0.00 | 0.00 | 0.00 | 53 | 1003.7 |
| 20260510143013 | 50 | 248 | 0.0 | 0.0 | 0.00 | 0.00 | 0.00 | 53 | 1003.7 |
| 20260510142510 | 49 | 338 | 0.0 | 0.0 | 0.00 | 0.00 | 0.00 | 52 | 1003.7 |
| 20260510142010 | 49 | 315 | 0.0 | 0.0 | 0.00 | 0.00 | 0.00 | 52 | 1003.7 |
| 20260510141511 | 49 | 315 | 0.0 | 0.0 | 0.00 | 0.00 | 0.00 | 53 | 1003.7 |
| 20260510141010 | 49 | 293 | 0.0 | 0.0 | 0.00 | 0.00 | 0.00 | 53 | 1003.7 |
| 20260510140010 | 49 | 338 | 0.0 | 0.0 | 0.00 | 0.00 | 0.00 | 54 | 1003.7 |
| 20260510135510 | 49 | 293 | 0.0 | 0.0 | 0.00 | 0.00 | 0.00 | 54 | 1003.7 |
| 20260510135010 | 49 | 338 | 0.0 | 0.0 | 0.00 | 0.00 | 0.00 | 54 | 1003.7 |
| 20260510134510 | 49 | 315 | 0.0 | 0.0 | 0.00 | 0.00 | 0.00 | 55 | 1003.7 |
| 20260510134009 | 49 | 338 | 0.0 | 0.0 | 0.00 | 0.00 | 0.00 | 55 | 1003.7 |
| 20260510133009 | 49 | 293 | 0.0 | 0.0 | 0.00 | 0.00 | 0.00 | 55 | 1003.7 |
| 20260510132509 | 49 | 248 | 0.0 | 0.0 | 0.00 | 0.00 | 0.00 | 56 | 1003.7 |
| 20260510132009 | 49 | 315 | 0.0 | 0.0 | 0.00 | 0.00 | 0.00 | 56 | 1003.5 |
| 20260510131010 | 49 | 315 | 0.0 | 0.0 | 0.00 | 0.00 | 0.00 | 57 | 1003.3 |
| 20260510130510 | 49 | 293 | 0.0 | 0.0 | 0.00 | 0.00 | 0.00 | 57 | 1003.3 |
| 20260510130009 | 49 | 270 | 0.0 | 0.0 | 0.00 | 0.00 | 0.00 | 59 | 1003.3 |
| 20260510125511 | 49 | 248 | 0.0 | 0.0 | 0.00 | 0.00 | 0.00 | 59 | 1003.2 |
| 20260510125011 | 48 | 248 | 0.0 | 0.0 | 0.00 | 0.00 | 0.00 | 59 | 1003.3 |
| 20260510124511 | 48 | 225 | 0.0 | 0.0 | 0.00 | 0.00 | 0.00 | 61 | 1003.3 |
| 20260510124017 | 47 | 225 | 0.0 | 0.0 | 0.00 | 0.00 | 0.00 | 62 | 1003.3 |
| 20260510123510 | 47 | 270 | 0.0 | 0.0 | 0.00 | 0.00 | 0.00 | 62 | 1003.3 |
| 20260510123009 | 46 | 270 | 0.0 | 0.0 | 0.00 | 0.00 | 0.00 | 64 | 1003.0 |
| 20260510122517 | 46 | 270 | 0.0 | 0.0 | 0.00 | 0.00 | 0.00 | 65 | 1003.0 |
| 20260510122009 | 45 | 293 | 0.0 | 0.0 | 0.00 | 0.00 | 0.00 | 65 | 1002.8 |
| 20260510121011 | 44 | 270 | 0.0 | 0.0 | 0.00 | 0.00 | 0.00 | 67 | 1002.7 |
| 20260510120510 | 44 | 270 | 0.0 | 0.0 | 0.00 | 0.00 | 0.00 | 69 | 1002.7 |
| 20260510120009 | 43 | 315 | 0.0 | 0.0 | 0.00 | 0.00 | 0.00 | 70 | 1002.7 |
| 20260510115510 | 42 | 315 | 0.0 | 0.0 | 0.00 | 0.00 | 0.00 | 71 | 1002.7 |
| 20260510115011 | 40 | 315 | 0.0 | 0.0 | 0.00 | 0.00 | 0.00 | 72 | 1002.7 |
| 20260510114017 | 38 | 315 | 0.0 | 0.0 | 0.00 | 0.00 | 0.00 | 72 | 1002.7 |
| 20260510113009 | 36 | 315 | 0.0 | 0.0 | 0.00 | 0.00 | 0.00 | 71 | 1002.7 |
| 20260510112510 | 36 | 315 | 0.0 | 0.0 | 0.00 | 0.00 | 0.00 | 70 | 1002.3 |
| 20260510111510 | 35 | 315 | 0.0 | 0.0 | 0.00 | 0.00 | 0.00 | 69 | 1002.3 |
| 20260510111009 | 35 | 315 | 0.0 | 0.0 | 0.00 | 0.00 | 0.00 | 69 | 1002.3 |
| 20260510110510 | 35 | 315 | 0.0 | 0.0 | 0.00 | 0.00 | 0.00 | 69 | 1002.1 |
| 20260510110011 | 35 | 315 | 0.0 | 0.0 | 0.00 | 0.00 | 0.00 | 68 | 1002.0 |
| 20260510105517 | 35 | 315 | 0.0 | 0.0 | 0.00 | 0.00 | 0.00 | 68 | 1001.6 |
| 20260510105009 | 35 | 315 | 0.0 | 0.0 | 0.00 | 0.00 | 0.00 | 68 | 1001.6 |
| 20260510104511 | 36 | 315 | 0.0 | 0.0 | 0.00 | 0.00 | 0.00 | 67 | 1001.6 |
| 20260510104010 | 36 | 315 | 0.0 | 0.0 | 0.00 | 0.00 | 0.00 | 67 | 1001.6 |
| 20260510103010 | 36 | 315 | 0.0 | 0.0 | 0.00 | 0.00 | 0.00 | 66 | 1001.3 |
| 20260510102510 | 36 | 315 | 0.0 | 0.0 | 0.00 | 0.00 | 0.00 | 66 | 1001.3 |
| 20260510102010 | 36 | 315 | 0.0 | 0.0 | 0.00 | 0.00 | 0.00 | 66 | 1001.3 |
| 20260510101017 | 37 | 315 | 0.0 | 0.0 | 0.00 | 0.00 | 0.00 | 65 | 1001.0 |
| 20260510100510 | 37 | 315 | 0.0 | 0.0 | 0.00 | 0.00 | 0.00 | 65 | 1001.0 |
| 20260510100010 | 37 | 315 | 0.0 | 0.0 | 0.00 | 0.00 | 0.00 | 65 | 1001.0 |
| 20260510095510 | 38 | 315 | 0.0 | 0.0 | 0.00 | 0.00 | 0.00 | 65 | 1001.0 |
| 20260510094510 | 38 | 315 | 0.0 | 0.0 | 0.00 | 0.00 | 0.00 | 64 | 1001.0 |
| 20260510094018 | 38 | 315 | 0.0 | 0.0 | 0.00 | 0.00 | 0.00 | 64 | 1001.0 |
| 20260510093510 | 38 | 315 | 0.0 | 0.0 | 0.00 | 0.00 | 0.00 | 64 | 1001.0 |
| 20260510093009 | 39 | 315 | 0.0 | 0.0 | 0.00 | 0.00 | 0.00 | 63 | 1001.0 |
| 20260510092511 | 39 | 315 | 0.0 | 0.0 | 0.00 | 0.00 | 0.00 | 63 | 1001.0 |
| 20260510092011 | 39 | 315 | 0.0 | 0.0 | 0.00 | 0.00 | 0.00 | 63 | 1001.0 |
| 20260510091509 | 40 | 315 | 0.0 | 0.0 | 0.00 | 0.00 | 0.00 | 63 | 1001.0 |
| 20260510091011 | 40 | 315 | 0.0 | 0.0 | 0.00 | 0.00 | 0.00 | 62 | 1001.0 |
| 20260510090510 | 40 | 315 | 0.0 | 0.0 | 0.00 | 0.00 | 0.00 | 62 | 1000.6 |
| 20260510085510 | 41 | 315 | 0.0 | 0.0 | 0.00 | 0.00 | 0.00 | 62 | 1000.4 |
| 20260510084009 | 41 | 315 | 0.0 | 0.0 | 0.00 | 0.00 | 0.00 | 62 | 1000.2 |
| 20260510083510 | 42 | 315 | 0.0 | 0.0 | 0.00 | 0.00 | 0.00 | 62 | 1000.0 |
| 20260510083011 | 42 | 315 | 0.0 | 0.0 | 0.00 | 0.00 | 0.00 | 62 | 1000.0 |
| 20260510082510 | 42 | 338 | 0.0 | 0.0 | 0.00 | 0.00 | 0.00 | 62 | 1000.0 |
| 20260510082011 | 42 | 338 | 0.0 | 0.0 | 0.00 | 0.00 | 0.00 | 62 | 1000.0 |
| 20260510081510 | 42 | 338 | 0.0 | 0.0 | 0.00 | 0.00 | 0.00 | 62 | 1000.0 |
| 20260510081017 | 42 | 338 | 0.0 | 0.0 | 0.00 | 0.00 | 0.00 | 62 | 999.6 |
| 20260510080510 | 42 | 338 | 0.0 | 0.0 | 0.00 | 0.00 | 0.00 | 62 | 999.6 |
| 20260510075510 | 42 | 338 | 0.0 | 0.0 | 0.00 | 0.00 | 0.00 | 62 | 999.6 |
| 20260510074509 | 42 | 338 | 0.0 | 0.0 | 0.00 | 0.00 | 0.00 | 61 | 999.6 |
| 20260510074016 | 42 | 338 | 0.0 | 0.0 | 0.00 | 0.00 | 0.00 | 61 | 999.5 |
| 20260510073511 | 42 | 338 | 0.0 | 0.0 | 0.00 | 0.00 | 0.00 | 61 | 999.3 |
| 20260510073010 | 42 | 338 | 0.0 | 0.0 | 0.00 | 0.00 | 0.00 | 60 | 999.3 |
| 20260510072511 | 42 | 338 | 0.0 | 0.0 | 0.00 | 0.00 | 0.00 | 60 | 999.3 |
| 20260510072011 | 42 | 338 | 0.0 | 0.0 | 0.00 | 0.00 | 0.00 | 59 | 999.3 |
| 20260510071510 | 42 | 338 | 0.0 | 0.0 | 0.00 | 0.00 | 0.00 | 59 | 999.3 |
| 20260510071017 | 42 | 338 | 0.0 | 0.0 | 0.00 | 0.00 | 0.00 | 58 | 998.9 |
| 20260510070510 | 42 | 338 | 0.0 | 0.0 | 0.00 | 0.00 | 0.00 | 58 | 998.9 |
| 20260510070011 | 43 | 338 | 0.0 | 0.0 | 0.00 | 0.00 | 0.00 | 58 | 998.9 |
| 20260510065510 | 43 | 338 | 0.0 | 0.0 | 0.00 | 0.00 | 0.00 | 57 | 998.9 |
| 20260510064510 | 43 | 338 | 0.0 | 0.0 | 0.00 | 0.00 | 0.00 | 57 | 998.9 |
| 20260510064010 | 43 | 338 | 0.0 | 0.0 | 0.00 | 0.00 | 0.00 | 57 | 998.9 |
| 20260510062510 | 44 | 338 | 0.0 | 0.0 | 0.00 | 0.00 | 0.00 | 57 | 998.8 |
| 20260510062010 | 44 | 0 | 0.0 | 0.0 | 0.00 | 0.00 | 0.00 | 56 | 998.6 |
| 20260510061011 | 44 | 315 | 0.0 | 0.0 | 0.00 | 0.00 | 0.00 | 56 | 998.6 |
| 20260510060511 | 44 | 338 | 0.0 | 0.0 | 0.00 | 0.00 | 0.00 | 56 | 998.6 |
| 20260510060010 | 44 | 338 | 0.0 | 0.0 | 0.00 | 0.00 | 0.00 | 56 | 998.6 |
| 20260510055509 | 44 | 338 | 0.0 | 0.0 | 0.00 | 0.00 | 0.00 | 56 | 998.5 |
| 20260510055010 | 45 | 315 | 0.0 | 0.0 | 0.00 | 0.00 | 0.00 | 56 | 998.4 |
| 20260510054511 | 45 | 315 | 0.0 | 0.0 | 0.00 | 0.00 | 0.00 | 56 | 998.3 |
| 20260510054012 | 45 | 315 | 0.0 | 0.0 | 0.00 | 0.00 | 0.00 | 56 | 998.3 |
| 20260510053512 | 45 | 338 | 0.0 | 0.0 | 0.00 | 0.00 | 0.00 | 56 | 998.3 |
| 20260510053009 | 45 | 315 | 0.0 | 0.0 | 0.00 | 0.00 | 0.00 | 56 | 998.1 |
| 20260510052518 | 45 | 338 | 0.0 | 0.0 | 0.00 | 0.00 | 0.00 | 56 | 998.1 |
| 20260510052010 | 46 | 338 | 0.0 | 0.0 | 0.00 | 0.00 | 0.00 | 55 | 997.9 |
| 20260510051011 | 46 | 338 | 0.0 | 0.0 | 0.00 | 0.00 | 0.00 | 55 | 997.7 |
| 20260510050510 | 46 | 338 | 0.0 | 0.0 | 0.00 | 0.00 | 0.00 | 55 | 997.6 |
| 20260510050010 | 47 | 0 | 0.0 | 0.0 | 0.00 | 0.00 | 0.00 | 54 | 997.6 |
| 20260510045509 | 47 | 338 | 0.0 | 0.0 | 0.00 | 0.00 | 0.00 | 54 | 997.4 |
| 20260510045011 | 47 | 338 | 0.0 | 0.0 | 0.00 | 0.00 | 0.00 | 54 | 997.2 |
| 20260510044010 | 48 | 0 | 0.0 | 0.0 | 0.00 | 0.00 | 0.00 | 54 | 997.2 |
| 20260510043510 | 48 | 0 | 0.0 | 0.0 | 0.00 | 0.00 | 0.00 | 54 | 997.2 |
| 20260510042511 | 49 | 0 | 0.0 | 0.0 | 0.00 | 0.00 | 0.00 | 53 | 996.9 |
| 20260510042010 | 49 | 338 | 0.0 | 0.0 | 0.00 | 0.00 | 0.00 | 53 | 996.9 |
| 20260510041011 | 49 | 338 | 0.0 | 0.0 | 0.00 | 0.00 | 0.00 | 53 | 996.6 |
| 20260510040510 | 49 | 338 | 0.0 | 0.0 | 0.00 | 0.00 | 0.00 | 53 | 996.6 |
| 20260510040010 | 49 | 0 | 0.0 | 0.0 | 0.00 | 0.00 | 0.00 | 53 | 996.6 |
| 20260510035511 | 50 | 338 | 0.0 | 0.0 | 0.00 | 0.00 | 0.00 | 53 | 996.2 |
| 20260510034510 | 50 | 338 | 0.0 | 0.0 | 0.00 | 0.00 | 0.00 | 53 | 996.2 |
| 20260510034011 | 50 | 315 | 0.0 | 0.0 | 0.00 | 0.00 | 0.00 | 54 | 996.0 |
| 20260510033510 | 50 | 293 | 0.0 | 0.0 | 0.00 | 0.00 | 0.00 | 54 | 995.9 |
| 20260510033011 | 50 | 338 | 0.0 | 0.0 | 0.00 | 0.00 | 0.00 | 55 | 995.9 |
| 20260510032509 | 50 | 338 | 0.0 | 0.0 | 0.00 | 0.00 | 0.00 | 55 | 995.9 |
| 20260510032009 | 50 | 315 | 0.0 | 0.0 | 0.00 | 0.00 | 0.00 | 56 | 995.5 |
| 20260510031510 | 50 | 0 | 0.0 | 0.0 | 0.00 | 0.00 | 0.00 | 56 | 995.5 |
| 20260510031010 | 50 | 338 | 0.0 | 0.0 | 0.00 | 0.00 | 0.00 | 57 | 995.5 |
| 20260510030510 | 50 | 338 | 0.0 | 0.0 | 0.00 | 0.00 | 0.00 | 57 | 995.5 |
| 20260510025511 | 51 | 338 | 0.0 | 0.0 | 0.00 | 0.00 | 0.00 | 55 | 995.2 |
| 20260510025011 | 51 | 338 | 0.0 | 0.0 | 0.00 | 0.00 | 0.00 | 55 | 995.2 |
| 20260510024510 | 51 | 338 | 0.0 | 0.0 | 0.00 | 0.00 | 0.00 | 55 | 995.2 |
| 20260510024017 | 52 | 338 | 0.0 | 0.0 | 0.00 | 0.00 | 0.00 | 55 | 995.1 |
| 20260510023510 | 52 | 338 | 0.0 | 0.0 | 0.00 | 0.00 | 0.00 | 54 | 994.9 |
| 20260510023011 | 53 | 338 | 0.0 | 0.0 | 0.00 | 0.00 | 0.00 | 54 | 994.9 |
| 20260510022511 | 53 | 338 | 0.0 | 0.0 | 0.00 | 0.00 | 0.00 | 53 | 994.9 |
| 20260510022011 | 53 | 338 | 0.0 | 0.0 | 0.00 | 0.00 | 0.00 | 53 | 994.7 |
| 20260510021510 | 53 | 338 | 0.0 | 0.0 | 0.00 | 0.00 | 0.00 | 53 | 994.5 |
| 20260510021009 | 54 | 338 | 0.0 | 0.0 | 0.00 | 0.00 | 0.00 | 53 | 994.5 |
| 20260510020509 | 54 | 338 | 0.0 | 0.0 | 0.00 | 0.00 | 0.00 | 52 | 994.5 |
| 20260510015510 | 55 | 338 | 0.0 | 0.0 | 0.00 | 0.00 | 0.00 | 52 | 994.2 |
| 20260510015010 | 55 | 315 | 0.0 | 0.0 | 0.00 | 0.00 | 0.00 | 51 | 994.1 |
| 20260510014510 | 56 | 338 | 0.0 | 0.0 | 0.00 | 0.00 | 0.00 | 51 | 993.9 |
| 20260510014010 | 56 | 0 | 0.0 | 0.0 | 0.00 | 0.00 | 0.00 | 51 | 993.9 |
| 20260510013510 | 56 | 0 | 0.0 | 0.0 | 0.00 | 0.00 | 0.00 | 50 | 993.5 |
| 20260510013011 | 57 | 315 | 0.0 | 0.0 | 0.00 | 0.00 | 0.00 | 49 | 993.5 |
| 20260510012510 | 57 | 293 | 0.0 | 0.0 | 0.00 | 0.00 | 0.00 | 49 | 993.2 |
| 20260510011511 | 57 | 338 | 0.0 | 0.0 | 0.00 | 0.00 | 0.00 | 48 | 992.8 |
| 20260510011010 | 58 | 315 | 0.0 | 0.0 | 0.00 | 0.00 | 0.00 | 48 | 992.8 |
| 20260510010510 | 58 | 315 | 0.0 | 0.0 | 0.00 | 0.00 | 0.00 | 48 | 992.5 |
| 20260510010009 | 58 | 338 | 0.0 | 0.0 | 0.00 | 0.00 | 0.00 | 47 | 992.5 |
| 20260510005518 | 58 | 338 | 0.0 | 0.0 | 0.00 | 0.00 | 0.00 | 47 | 992.5 |
| 20260510005011 | 59 | 338 | 0.0 | 0.0 | 0.00 | 0.00 | 0.00 | 47 | 992.2 |
| 20260510004511 | 59 | 315 | 0.0 | 0.0 | 0.00 | 0.00 | 0.00 | 47 | 992.2 |
| 20260510004017 | 59 | 338 | 0.0 | 0.0 | 0.00 | 0.00 | 0.00 | 47 | 992.2 |
| 20260510003510 | 59 | 0 | 0.0 | 0.0 | 0.00 | 0.00 | 0.00 | 48 | 992.2 |
| 20260510003009 | 60 | 293 | 0.0 | 0.0 | 0.00 | 0.00 | 0.00 | 48 | 991.9 |
| 20260510002516 | 60 | 338 | 0.0 | 0.0 | 0.00 | 0.00 | 0.00 | 48 | 991.8 |
| 20260510002011 | 60 | 338 | 0.0 | 0.0 | 0.00 | 0.00 | 0.00 | 47 | 991.8 |
| 20260510001510 | 60 | 338 | 0.0 | 0.0 | 0.00 | 0.00 | 0.00 | 47 | 991.5 |
| 20260510001010 | 60 | 338 | 0.0 | 0.0 | 0.00 | 0.00 | 0.00 | 46 | 991.5 |
| 20260510000510 | 61 | 293 | 0.0 | 0.0 | 0.00 | 0.00 | 0.00 | 46 | 991.4 |
| 20260510000012 | 61 | 338 | 0.0 | 0.0 | 0.00 | 0.00 | 0.00 | 45 | 991.1 |
| 20260509235517 | 61 | 338 | 0.0 | 0.0 | 0.00 | 0.00 | 0.00 | 45 | 991.1 |
| 20260509235011 | 61 | 315 | 0.0 | 0.0 | 0.00 | 0.00 | 0.00 | 44 | 991.1 |
| 20260509234511 | 62 | 315 | 0.0 | 0.0 | 0.00 | 0.00 | 0.00 | 44 | 991.1 |
| 20260509234011 | 62 | 315 | 0.0 | 0.0 | 0.00 | 0.00 | 0.00 | 44 | 990.8 |
| 20260509233011 | 63 | 338 | 0.0 | 0.0 | 0.00 | 0.00 | 0.00 | 43 | 990.6 |
| 20260509232511 | 64 | 338 | 0.0 | 0.0 | 0.00 | 0.00 | 0.00 | 43 | 990.5 |
| 20260509232010 | 64 | 338 | 0.0 | 0.0 | 0.00 | 0.00 | 0.00 | 42 | 990.5 |
| 20260509231509 | 64 | 315 | 0.0 | 0.0 | 0.00 | 0.00 | 0.00 | 42 | 990.1 |
| 20260509231011 | 64 | 315 | 0.0 | 0.0 | 0.00 | 0.00 | 0.00 | 42 | 990.1 |
| 20260509230510 | 64 | 315 | 0.0 | 0.0 | 0.00 | 0.00 | 0.00 | 41 | 990.1 |
| 20260509230010 | 65 | 293 | 0.0 | 0.0 | 0.00 | 0.00 | 0.00 | 42 | 989.8 |
| 20260509225517 | 65 | 315 | 0.0 | 0.0 | 0.00 | 0.00 | 0.00 | 41 | 989.6 |
| 20260509225010 | 65 | 293 | 0.0 | 0.0 | 0.00 | 0.00 | 0.00 | 41 | 989.5 |
| 20260509224511 | 67 | 270 | 0.0 | 0.0 | 0.00 | 0.00 | 0.00 | 41 | 989.4 |
| 20260509224010 | 67 | 293 | 0.0 | 0.0 | 0.00 | 0.00 | 0.00 | 42 | 989.4 |
| 20260509223510 | 67 | 293 | 0.0 | 0.0 | 0.00 | 0.00 | 0.00 | 42 | 989.5 |
| 20260509223010 | 67 | 338 | 0.0 | 0.0 | 0.00 | 0.00 | 0.00 | 42 | 989.5 |
| 20260509222510 | 67 | 270 | 0.0 | 0.0 | 0.00 | 0.00 | 0.00 | 42 | 989.5 |
| 20260509222011 | 67 | 293 | 0.0 | 0.0 | 0.00 | 0.00 | 0.00 | 43 | 989.4 |
| 20260509221010 | 66 | 248 | 0.0 | 0.0 | 0.00 | 0.00 | 0.00 | 43 | 989.1 |
| 20260509220510 | 66 | 270 | 0.0 | 0.0 | 0.00 | 0.00 | 0.00 | 41 | 989.1 |
| 20260509220011 | 66 | 315 | 0.0 | 0.0 | 0.00 | 0.00 | 0.00 | 42 | 988.9 |
| 20260509215517 | 67 | 270 | 0.0 | 0.0 | 0.00 | 0.00 | 0.00 | 41 | 988.8 |
| 20260509215011 | 68 | 270 | 0.0 | 0.0 | 0.00 | 0.00 | 0.00 | 41 | 988.8 |
| 20260509214511 | 68 | 270 | 0.0 | 0.0 | 0.00 | 0.00 | 0.00 | 41 | 988.8 |
| 20260509214010 | 68 | 225 | 0.0 | 0.0 | 0.00 | 0.00 | 0.00 | 42 | 988.8 |
| 20260509213510 | 68 | 270 | 0.0 | 0.0 | 0.00 | 0.00 | 0.00 | 42 | 988.8 |
| 20260509212511 | 68 | 338 | 0.0 | 0.0 | 0.00 | 0.00 | 0.00 | 42 | 988.6 |
| 20260509212011 | 68 | 293 | 0.0 | 0.0 | 0.00 | 0.00 | 0.00 | 42 | 988.4 |
| 20260509211511 | 68 | 203 | 0.0 | 0.0 | 0.00 | 0.00 | 0.00 | 42 | 988.4 |
| 20260509211017 | 68 | 270 | 0.0 | 0.0 | 0.00 | 0.00 | 0.00 | 42 | 988.4 |
| 20260509210010 | 68 | 248 | 0.0 | 0.0 | 0.00 | 0.00 | 0.00 | 42 | 988.4 |
| 20260509205512 | 68 | 293 | 0.0 | 0.0 | 0.00 | 0.00 | 0.00 | 42 | 988.3 |
| 20260509205011 | 68 | 270 | 0.0 | 0.0 | 0.00 | 0.00 | 0.00 | 43 | 988.1 |
| 20260509204010 | 67 | 315 | 0.0 | 0.0 | 0.00 | 0.00 | 0.00 | 44 | 988.1 |
| 20260509203510 | 67 | 270 | 0.0 | 0.0 | 0.00 | 0.00 | 0.00 | 44 | 988.0 |
| 20260509203011 | 68 | 248 | 0.0 | 0.0 | 0.00 | 0.00 | 0.00 | 44 | 988.1 |
| 20260509202511 | 68 | 270 | 0.0 | 0.0 | 0.00 | 0.00 | 0.00 | 44 | 987.8 |
| 20260509202010 | 68 | 270 | 0.0 | 0.0 | 0.00 | 0.00 | 0.00 | 44 | 988.1 |
| 20260509201510 | 69 | 270 | 0.0 | 0.0 | 0.00 | 0.00 | 0.00 | 45 | 987.9 |
| 20260509201018 | 68 | 270 | 0.0 | 0.0 | 0.00 | 0.00 | 0.00 | 45 | 988.1 |